Terminal Aerodrome Forecast
Issued by NWS Atlanta, GA

Home | Current Version | Previous Version | Text Only | Print | Product List | Glossary On
Versions: 1 2 3 4 5 6 7 8 9 10 11 12 13 14 15 16 17 18 19 20 21 22 23 24 25 26 27 28 29 30 31 32 33 34 35 36 37 38 39
000
FTUS42 KFFC 022336
TAFAHN
TAF
KAHN 022336Z 0300/0324 31007KT P6SM FEW250
     FM031200 01003KT P6SM SCT150
     FM031400 05006KT P6SM BKN150
     FM031700 10007KT P6SM BKN150=

USA.gov is the U.S. government's official web portal to all federal, state and local government web resources and services.